Probability
0 0 0 0 0 0 0 0 0 0 0 0 0 0 0 0 0 0 0 0 0 0 0 0 0 0 0 1 1 1 0 1 2 5 7 8 6 4
0 0 0 0 0 0 0 0 0 0 0 0 0 0 0 0 0 0 0 0 0 0 0 0 0 0 0 0 0 0 0 0 1 3 5 5 4 2
0 0 0 0 0 0 0 0 0 0 0 0 0 0 0 0 0 0 0 0 0 0 0 0 0 0 0 0 0 0 0 0 0 1 1 1 1 0
0 0 0 0 0 0 0 0 0 0 0 0 0 0 0 0 0 0 0 0 0 0 0 0 0 0 0 0 0 0 0 0 0 0 0 0 0 0
0 0 0 0 0 0 0 0 0 0 0 0 0 0 0 0 0 0 0 0 0 0 0 0 0 0 0 0 0 0 0 0 0 0 0 0 0 0
0 0 0 0 0 0 0 0 0 0 0 0 0 0 0 0 0 0 0 0 0 0 0 0 0 0 0 0 0 0 0 0 0 0 0 0 0 0
0 0 0 0 0 0 0 0 0 0 0 0 0 0 0 0 0 0 0 0 0 0 0 0 0 0 0 0 0 0 0 0 0 0 0 0 0 0
0 0 0 0 0 0 0 0 0 0 0 0 0 0 0 0 0 0 0 0 0 0 0 0 0 0 0 0 0 0 0 0 0 0 0 0 0 0
0 0 0 0 0 0 0 0 0 0 0 0 0 0 0 0 0 0 0 0 0 0 0 0 0 0 0 0 0 0 0 0 0 0 0 0 0 0
0 0 0 0 0 0 0 0 0 0 0 0 0 0 0 0 0 0 0 0 0 0 0 0 0 0 0 0 0 0 0 0 0 0 0 0 0 0
0 0 0 0 0 0 0 0 0 0 0 0 0 0 0 0 0 0 0 0 0 0 0 0 0 0 0 0 0 0 0 0 0 0 0 0 0 0
0 0 0 0 0 0 0 0 0 0 0 0 0 0 0 0 0 0 0 0 0 0 0 0 0 0 0 0 1 0 0 0 0 0 0 0 0 0
0 0 0 0 0 0 0 0 0 0 0 0 0 0 0 0 0 0 0 0 0 0 0 0 0 0 0 0 0 0 0 0 0 0 0 0 0 0
0 0 0 0 0 0 0 0 0 0 0 0 0 0 0 0 0 0 0 0 0 0 0 0 0 0 0 0 0 0 1 0 0 0 0 0 0 0
0 0 0 0 0 0 0 0 0 0 0 0 0 0 0 0 0 0 0 0 0 0 0 0 0 0 0 0 0 0 0 0 0 0 0 0 0 0
0 0 0 0 0 0 0 0 0 0 0 0 0 0 0 0 0 0 0 0 0 0 0 0 0 0 0 0 0 0 0 0 0 0 0 0 0 0
0 0 0 0 0 0 0 0 0 0 0 0 0 0 0 0 0 0 0 0 0 0 0 0 0 0 0 0 0 0 0 0 0 0 0 0 0 0
0 0 0 0 0 0 0 0 0 0 0 0 0 0 0 0 0 0 0 0 0 0 0 0 0 0 0 0 0 0 0 0 0 0 0 0 0 0
0 0 0 0 0 0 0 0 0 0 0 0 0 0 0 0 0 0 0 0 0 0 0 0 0 0 0 0 0 0 0 0 0 0 0 0 0 0
0 0 0 0 0 0 0 0 0 0 0 0 0 0 0 0 0 0 0 0 0 0 0 0 0 0 0 0 0 0 0 0 0 0 0 0 0 0
0 0 0 0 0 0 0 0 0 0 0 0 0 0 0 0 0 0 0 0 0 0 0 0 0 0 0 0 0 0 0 0 0 0 0 0 0 0
0 0 0 0 0 0 0 0 0 0 0 0 0 0 0 0 0 0 0 0 0 0 0 0 0 0 0 0 0 0 0 0 0 0 0 0 0 0
0 0 0 0 0 0 0 0 0 0 0 0 0 0 0 0 0 0 0 0 0 0 0 0 0 0 0 0 0 0 0 0 0 0 0 0 0 0
Wind_Speed
2 2 2 2 2 2 3 3 2 3 3 3 2 2 2 2 4 3 3 5 6 5 6 7 7 9 10 12 13 15 17 17 18 18 20 20 20 21
2 2 3 2 2 2 3 3 3 4 4 3 3 3 4 5 5 4 4 6 7 7 7 8 8 8 9 10 11 13 15 17 18 18 19 19 19 20
3 3 4 3 3 2 2 3 3 4 5 5 3 3 4 5 5 5 5 5 5 8 8 8 8 9 9 10 11 11 13 16 17 18 18 19 19 20
4 4 5 3 4 3 3 4 4 5 5 6 4 3 5 5 5 6 5 5 5 7 9 9 9 9 9 10 10 11 13 14 16 17 17 18 19 20
5 5 5 5 5 4 4 5 4 5 5 5 6 3 4 4 4 4 5 4 5 6 8 9 9 10 10 10 11 12 12 13 15 16 16 17 18 19
5 6 6 6 7 7 5 6 5 5 5 5 6 5 4 4 3 4 4 3 4 5 5 6 7 9 10 11 11 12 12 13 15 15 16 17 17 18
6 6 7 8 10 8 6 6 6 5 5 5 6 5 5 4 4 3 5 5 5 4 4 4 4 4 5 8 10 12 12 13 14 15 16 16 17 17
7 7 7 9 10 10 11 10 9 8 7 6 6 7 8 7 5 5 4 4 5 2 3 4 3 5 5 6 8 11 12 13 13 14 16 16 17 17
8 7 7 7 7 7 9 10 10 11 12 8 9 10 9 7 6 6 6 6 7 4 3 5 4 6 6 7 10 11 12 13 13 14 15 16 16 17
8 9 9 9 8 8 7 8 8 8 9 8 9 10 9 8 8 7 7 7 7 6 5 6 5 6 7 6 10 12 12 12 13 14 14 15 15 16
9 9 9 10 12 10 8 9 9 9 9 11 11 11 12 12 9 5 6 6 7 6 5 5 5 5 6 6 7 10 11 11 12 13 14 14 14 14
8 8 11 12 12 10 8 8 10 10 8 7 7 8 9 10 11 10 8 7 6 6 5 6 5 4 5 4 4 4 6 8 11 12 13 13 12 9
7 7 7 11 13 12 10 9 12 10 7 7 7 7 7 7 8 8 9 9 9 8 5 5 4 4 5 4 3 4 4 4 5 6 9 11 12 11
9 8 8 11 11 11 9 11 13 10 7 7 7 8 8 8 7 8 9 10 11 12 9 8 6 6 6 6 6 4 4 4 5 5 5 7 9 12
9 11 12 12 10 9 11 13 10 7 6 7 9 9 8 8 7 6 7 9 10 11 11 12 11 9 8 8 7 6 5 4 5 5 5 6 6 6
8 9 10 10 9 10 9 8 7 7 7 8 9 9 7 7 7 6 6 6 6 7 9 12 12 12 10 10 9 8 7 5 4 5 5 5 5 6
4 4 4 5 6 6 6 7 6 6 7 8 8 8 8 7 7 6 6 6 7 7 7 5 8 9 11 9 8 9 8 8 7 6 6 6 6 7
4 6 7 7 7 7 7 7 6 7 7 7 7 8 8 7 7 6 6 7 8 8 7 6 4 4 5 7 11 10 9 8 7 7 6 6 7 6
6 7 8 8 8 7 7 7 7 7 6 6 7 7 7 7 7 7 6 7 7 8 7 6 5 6 7 8 7 12 10 8 7 7 7 6 7 6
6 8 8 8 7 7 8 8 8 7 6 7 7 7 7 7 7 7 7 8 8 7 7 6 7 8 9 8 6 5 11 10 7 7 6 5 4 4
7 8 8 8 7 7 7 7 8 7 7 7 7 7 7 7 7 7 7 9 8 7 8 8 8 9 6 5 6 6 6 9 9 6 6 5 5 4
7 7 8 8 7 7 7 7 7 7 7 7 7 7 6 7 8 9 7 7 7 8 9 7 6 5 6 7 8 7 6 5 5 6 5 5 5 6
7 7 7 7 7 6 6 7 8 7 7 6 6 6 6 6 7 7 7 7 7 7 7 6 5 5 6 7 7 7 7 6 4 4 3 3 6 5
Wind_Direction
243 241 240 247 234 229 223 211 222 271 282 276 284 300 313 307 305 305 298 296 293 275 258 247 243 240 235 229 225 226 227 225 224 224 223 221 220 221
243 248 254 254 252 241 232 226 219 232 260 265 263 285 301 301 297 293 284 284 280 274 264 255 247 245 241 235 230 228 227 224 222 221 221 220 218 217
258 249 258 255 255 254 241 234 228 220 250 268 260 273 279 285 296 294 284 275 274 270 266 260 253 247 246 243 238 234 231 227 224 221 221 220 218 217
257 253 260 258 254 254 246 246 244 230 239 267 273 269 263 272 280 287 287 279 271 270 267 263 256 250 247 246 243 240 236 230 225 223 222 221 219 219
250 249 256 253 258 256 251 252 253 251 235 253 272 268 268 271 280 281 281 280 276 272 269 263 255 251 249 247 243 240 238 234 228 225 224 224 221 219
250 248 250 246 251 256 256 252 252 255 249 252 265 271 269 269 264 271 282 273 279 281 274 267 258 256 252 249 246 241 237 235 231 228 226 225 223 221
261 255 253 255 254 249 250 250 246 248 251 252 260 267 267 265 261 258 270 282 275 260 267 263 259 261 258 252 248 244 240 236 233 230 227 225 223 223
263 267 267 266 266 264 259 255 242 241 246 248 253 256 263 261 259 255 259 270 276 247 247 268 258 264 262 256 250 245 242 239 236 232 228 224 222 221
255 262 267 264 260 263 268 271 263 250 240 240 250 254 258 254 249 254 246 246 254 260 257 271 258 263 263 260 254 250 247 243 239 235 231 227 224 222
254 253 257 265 263 255 263 268 267 263 252 246 245 253 256 255 244 249 255 256 258 255 235 260 263 263 267 261 254 249 246 243 240 237 234 229 225 222
259 254 249 256 260 255 254 262 270 271 262 249 244 251 255 254 244 241 240 241 258 255 215 235 258 265 265 261 254 248 246 243 239 238 236 231 226 221
265 259 248 246 254 252 245 250 261 267 272 276 268 264 263 261 246 234 236 240 250 259 221 216 242 250 270 256 253 251 248 244 240 237 234 230 220 213
262 264 258 246 247 249 243 242 248 257 268 269 273 273 269 263 254 239 229 230 238 244 228 208 235 234 248 272 275 258 246 245 239 237 230 224 213 204
254 258 259 257 252 252 248 246 250 255 259 261 264 267 265 263 258 249 238 233 237 246 245 226 236 238 244 256 263 262 248 241 239 239 232 218 213 211
248 252 257 263 265 261 253 251 251 247 245 252 258 261 260 261 263 259 252 243 243 245 246 237 236 240 239 246 254 255 262 256 236 233 229 220 214 202
252 259 263 263 257 257 263 257 244 236 237 249 257 263 265 261 256 251 252 247 247 252 241 234 233 233 237 239 245 251 246 246 237 227 228 228 220 212
258 258 257 257 259 259 258 257 250 239 238 244 250 258 260 258 256 246 241 239 239 250 253 236 230 230 234 237 239 242 243 242 239 232 226 232 229 219
230 246 254 255 257 260 261 262 255 246 244 244 247 251 254 255 257 248 235 235 241 246 248 245 229 222 228 236 226 239 241 240 236 225 221 228 234 224
222 244 250 254 256 256 255 255 256 255 249 246 247 248 249 250 251 250 242 237 239 244 245 237 224 223 236 247 231 212 225 231 227 224 220 222 230 224
231 244 250 253 254 255 256 255 257 258 252 248 248 248 245 246 246 245 242 239 240 242 244 237 229 225 231 244 249 230 213 221 223 224 223 222 229 221
244 246 249 251 252 254 255 255 255 256 255 252 250 248 245 244 246 245 245 242 239 242 243 241 236 229 236 238 242 239 228 215 217 220 213 209 215 211
257 255 255 252 251 253 254 254 254 254 255 253 252 250 246 242 246 249 247 243 239 239 244 247 238 221 217 225 239 243 240 222 208 209 219 218 208 206
261 259 259 258 255 253 252 252 253 255 254 253 253 250 246 244 245 246 246 243 240 239 240 240 232 223 226 229 235 234 231 223 210 203 224 233 222 227